STARLINK-34403 (64443 NORAD) Tracking and Keplerian Element Data

This shows tracking and keplerian element data for the satellite.

Feedback or suggestion? Click here.




ElementValue
Catalog64443
NameSTARLINK-34403
Epoch Orbit2850
Epoch Day353.98826386
Epoch Year2025
RAAN98.5157
Inclination53.1581
Eccentricity9.99E-05
Argument of Perigee85.1092
Mean Anonmoly275.0022
Mean Motion15.30204483
Decay Rate0.00015988
L11 64443U 25130F 25353.98826386 .00015988 00000+0 55068-3 0 9997
L22 64443 53.1581 98.5157 0000999 85.1092 275.0022 15.30204483 28506



Live tracking and technical data element details for STARLINK-34403 (NORAD 64443). STARLINK-34403 can be tracked NOW for your location showing map with azimuth and elevation plus other details from your city location.







IsCatalogInMostPopularTable: catalog: 64443, numindb: 4
Update: records affected: 1



GetName: 64443 STARLINK-34403

Hit Count: updated at: Sun, 08 Feb 2026 17:31:37 GMT